{"data":{"norad_id":59030,"intl_designator":"2024-038H","name":"STARLINK-31186","alt_names":[],"object_type":"PAYLOAD","status":"ACTIVE","operator":null,"country":"US","launch_date":"2024-02-25","launch_site_code":"AFETR","launch_vehicle":null,"mission":null,"orbit_class":"UNKNOWN","rcs_meters":null,"size_class":null,"mass_kg":null,"dimensions":null,"purposes":["comms"],"wikipedia_slug":null,"has_3d_model":false,"image_url":null,"decayed_at":null,"tle_current":{"epoch":"2026-09-20T14:14:57.077088Z","epoch_age_seconds":147667,"freshness":"FRESH","line1":"1 59030U 24038H   26263.59371617  .00001436  00000+0  61675-4 0  9994","line2":"2 59030  43.0084   6.5271 0001656 286.6054  73.4615 15.27601406144566","mean_motion":15.27601406,"eccentricity":0.0001656,"inclination_deg":43.0084,"raan_deg":6.5271,"arg_perigee_deg":286.6054,"mean_anomaly_deg":73.4615,"bstar":6.1675e-5,"rev_number":14456,"period_min":94.265427770888,"perigee_km":481.84879772025,"apogee_km":484.12120132649,"semimajor_km":6861.1219995234,"source":"CELESTRAK","updated_at":"2026-09-21T09:00:34.029264Z"}}}